Location: Go??sza Dolna
(50.4032°N, 19.1316°E)
Time: 12:11:05
(UTC+00:00)

Daily predictions for brighter satellites

Satellite Brightness Start Highest point End
(mag) Time Altitude Azimuth Time Altitude Azimuth Time Altitude Azimuth
NOSS 3-1 (A) 4.1 15:51:29 10° NW 15:58:37 62° NE 16:06:58 10° ESE
Cosmos 1818 3.7 15:56:56 10° SW 16:02:22 86° NW 16:07:54 10° NE
Cosmos 1844 3.8 15:58:12 10° SSW 16:03:50 69° ESE 16:09:34 10° NNE
YAOGAN 1 3.9 16:01:13 10° ESE 16:04:15 19° ENE 16:07:19 10° NNE
Cosmos 1892 Rocket 3.6 16:00:34 10° SSW 16:04:54 83° WNW 16:09:16 10° N
ATLAS 2AS CENTAUR R/B 4.0 15:58:15 10° W 16:05:26 36° NNW 16:12:21 10° NE
H-2A R/B 2.7 16:02:24 10° SSE 16:06:34 79° WSW 16:10:57 10° NNW
Meteor 2-1 Rocket 4.2 16:04:44 10° N 16:10:18 77° ENE 16:15:48 10° SSE
Cosmos 1703 3.9 16:09:24 10° SSE 16:12:55 34° E 16:16:28 10° NNE
Cosmos 2227 Rocket 4.5 16:11:13 10° NW 16:13:12 12° NNW 16:15:12 10° N
Cosmos 1812 Rocket 3.9 16:09:35 10° N 16:13:46 41° ENE 16:17:53 10° SE
ATLAS 5 CENTAUR R/B 3.3 16:10:30 10° WNW 16:14:08 25° NNW 16:18:15 10° NE
X-37B 2.2 16:12:26 10° WSW 16:15:17 30° S 16:18:08 10° ESE
ISS -3.7 16:14:16 10° W 16:17:40 76° N 16:20:51 11° ENE
Okean O Rocket 1.7 16:14:38 10° SSE 16:19:04 85° WSW 16:23:30 10° NNW
Iridium 4 Rocket 4.1 16:14:31 10° N 16:19:28 34° ENE 16:24:00 10° SE
CZ-4C R/B 3.8 16:15:21 10° WNW 16:20:17 27° N 16:26:02 10° NE
ADEOS Rocket 4.3 16:15:55 10° N 16:21:12 36° WNW 16:26:11 10° SW
Meteor 2-13 Rocket 4.4 16:16:12 10° S 16:22:18 73° E 16:28:27 10° NNE
SKYMED 2 4.2 16:20:19 10° NNE 16:24:19 35° E 16:28:18 10° SSE
CZ-4 R/B 2.2 16:21:22 10° SE 16:24:49 28° ENE 16:28:14 10° N
USA 234 3.7 16:18:43 10° ENE 16:25:04 54° N 16:31:24 10° W
ERS-2 3.6 16:24:14 10° NE 16:26:51 18° E 16:29:27 10° SE
Cosmos 2278 Rocket 3.1 16:25:33 10° SSE 16:30:21 29° ESE 16:35:11 10° NE
Okean-O 3.3 16:26:53 10° SE 16:30:50 32° ENE 16:34:47 10° N
CZ-2C R/B 3.3 16:30:27 10° SSE 16:35:53 62° ENE 16:41:36 10° N
NOSS 2-1 (E) 3.0 16:33:21 10° SSW 16:36:36 59° SE 16:39:26 15° NE
Cosmos 1346 Rocket 3.9 16:33:46 10° SE 16:36:52 22° E 16:39:37 12° NE
Cosmos 1340 2.8 16:33:19 10° S 16:36:57 49° E 16:40:36 10° NNE
COSMOS 2455 3.8 16:31:44 10° WSW 16:37:30 45° NW 16:43:18 10° NNE
CZ-4B R/B 4.1 16:32:05 10° S 16:37:36 57° WSW 16:43:12 10° NNW
Cosmos 1455 3.6 16:43:14 10° NNW 16:46:53 42° W 16:50:31 10° SSW
Cosmos 405 2.9 16:43:56 10° N 16:47:28 65° ENE 16:50:58 10° SSE
ARGOS 3.6 16:44:13 10° SE 16:49:06 37° ENE 16:54:01 10° N
Cosmos 1626 Rocket 3.7 16:46:48 10° SSW 16:51:13 79° W 16:55:42 10° N
Cosmos 1092 Rocket 3.9 16:45:52 10° S 16:52:00 76° E 16:58:09 10° NNE
Cosmos 1869 4.3 16:50:37 10° NNE 16:53:47 23° ENE 16:54:30 22° E
Cosmos 2263 Rocket 4.3 16:50:28 10° WNW 16:54:23 19° NW 16:58:19 10° N
Cosmos 1898 Rocket 3.5 16:49:33 10° SSW 16:54:48 86° ESE 17:00:04 10° NNE
CZ-2C R/B 3.8 16:52:21 12° NE 16:56:09 22° E 17:00:28 10° SE
TELKOM 3 3.0 16:55:44 10° W 16:57:52 59° SSW 16:58:27 40° SE
Cosmos 1328 3.7 16:59:27 10° S 17:03:26 89° W 17:07:25 10° N
CZ-4B R/B 1.3 17:00:08 10° NNE 17:03:28 83° WNW 17:06:41 10° SSW
Cosmos 1048 Rocket 4.3 16:59:59 10° NNW 17:04:54 43° ENE 17:09:13 13° SE
MOS 1 Rocket 2.9 17:00:52 10° NNE 17:05:10 72° ESE 17:09:30 10° S
Meteor 2-15 4.4 16:59:21 10° N 17:05:33 74° ENE 17:11:41 10° SSE
CZ-2D R/B 3.6 17:02:08 10° S 17:05:56 66° WSW 17:09:46 10° NNW
Cosmos-2242 2.9 17:04:45 10° N 17:09:04 77° ENE 17:13:23 10° SSE
Meteor 1-11 4.2 17:04:09 10° S 17:09:44 64° E 17:15:18 10° NNE
COSMO-SKYMED 1 2.6 17:08:09 10° NNE 17:12:31 81° WNW 17:16:52 10° SSW
BREEZE-M DEB (TANK) 2.3 17:14:38 10° W 17:16:45 52° SSW 17:17:14 42° SSE
Cosmos 1937 Rocket 3.6 17:12:09 10° SSW 17:17:29 85° WNW 17:22:51 10° NNE
Cosmos 1758 Rocket 3.5 17:13:26 10° S 17:17:54 82° E 17:22:26 10° NNE
Cosmos 2098 Rocket 4.3 17:11:18 10° S 17:18:44 81° E 17:25:50 10° NNE
USA 290 3.2 17:18:24 10° NW 17:21:30 48° WSW 17:24:34 10° S
CSL-04 Debris 4.1 17:17:19 10° SSE 17:22:39 65° ENE 17:28:00 10° N
SL-08 RB Rocket 3.9 17:21:13 20° SE 17:24:00 46° ENE 17:28:17 10° N
Cosmos 1833 Rocket 3.2 17:19:59 10° NW 17:25:33 62° WSW 17:31:04 10° SSE
NOSS 2-1 (C) 3.8 17:22:38 10° WSW 17:25:51 44° NW 17:27:19 27° NNE
H-2A R/B 2.0 17:23:12 10° SSE 17:28:17 86° WSW 17:33:34 10° NNW
Cosmos 2221 3.9 17:24:34 10° N 17:26:47 24° NNE 17:26:47 24° NNE
H-2A R/B 4.1 17:25:43 10° N 17:29:26 27° WNW 17:33:03 10° WSW
NOSS 2-2 (C) 4.4 17:25:01 10° NW 17:29:56 54° NE 17:32:40 32° E
Cosmos 2266 Rocket 4.3 17:24:40 10° SSE 17:30:23 40° E 17:36:02 10° NNE
Helios 1A Rocket 2.8 17:26:42 10° SSE 17:30:51 87° ENE 17:35:01 10° NNW
NOSS 2-1 (D) 4.0 17:28:39 10° WSW 17:31:49 40° NW 17:33:06 28° N
Cosmos 2298 Rocket 4.3 17:26:56 10° S 17:31:55 42° ESE 17:32:59 38° ENE
Cosmos 389 Rocket 3.6 17:30:00 10° N 17:32:01 30° N 17:32:01 30° N
CZ-3B R/B 3.4 17:33:00 10° WNW 17:35:54 43° SSW 17:44:24 10° SE
Cosmos 2026 Rocket 4.3 17:29:55 10° SSW 17:36:03 69° WNW 17:42:20 10° N
Cosmos 44 4.5 17:31:26 10° WSW 17:36:07 41° NW 17:39:31 18° NNE
Cosmos 1417 Rocket 4.4 17:32:14 10° N 17:38:30 87° E 17:44:48 10° S
Meteor 2-15 Rocket 4.5 17:32:26 10° NNW 17:38:38 82° W 17:44:46 10° S
SJ 16-02 3.9 17:35:47 10° W 17:38:53 18° NW 17:42:00 10° N
YAOGAN 1 3.1 17:35:41 10° S 17:39:57 61° WSW 17:44:16 10° NNW
Cosmos 1689 Rocket 3.3 17:41:34 33° SSW 17:41:34 33° SSW 17:43:18 10° SSW
Cosmos 1553 Rocket 4.1 17:35:14 10° NNW 17:41:40 80° W 17:47:59 10° S
SJ-11-01 4.5 17:37:04 10° S 17:41:44 71° WSW 17:46:26 10° NNW
In-Cosmos 22 Rocket 4.3 17:37:09 10° S 17:42:44 53° E 17:47:28 14° NNE
Cosmos 2082 Rocket 2.3 17:39:42 10° NNW 17:45:27 77° WSW 17:51:07 10° SSE
HJ-1C 3.6 17:47:04 55° SSW 17:47:37 68° W 17:50:59 10° NNW
Meteor 1-27 4.5 17:43:00 10° NNW 17:48:35 69° W 17:54:06 10° S
Cosmos 1825 Rocket 3.9 17:45:26 10° SSW 17:49:48 65° WNW 17:54:14 10° N
X-37B 3.0 17:49:16 10° WSW 17:51:22 16° SSW 17:51:36 16° SSW
NOSS 2-2 (E) 4.3 17:47:57 10° NW 17:53:15 79° NE 17:56:04 37° SE
ISS -2.9 17:51:13 10° WNW 17:53:50 50° WNW 17:53:50 50° WNW
Meteor 2-21 4.4 17:50:23 10° S 17:56:19 57° E 18:02:19 10° NNE
MetOp-A 4.1 17:56:26 56° E 17:56:49 58° ENE 18:02:06 10° N
ATLAS 2AS CENTAUR R/B 3.9 17:51:48 10° NW 17:58:33 31° N 18:00:55 26° NE
CZ-4 R/B 3.2 17:56:12 10° SSW 17:59:48 31° W 18:03:21 10° NNW
Cosmos 2315 Rocket 3.9 17:53:59 10° N 18:00:09 58° ENE 18:01:36 47° ESE
ATLAS 5 CENTAUR R/B 3.7 17:56:57 10° NW 18:00:25 19° N 18:00:57 19° NNE
ERS-2 3.4 17:58:38 22° N 18:00:34 40° WNW 18:03:59 10° SW
Cosmos 883 Rocket 4.3 17:55:02 10° N 18:01:16 70° ENE 18:05:20 22° SSE
CSL-04 Rocket 4.0 17:58:31 10° S 18:03:56 67° WSW 18:09:28 10° NNW
Meteor 2-14 Rocket 4.3 17:58:24 10° S 18:04:22 63° E 18:10:24 10° NNE
Okean-O 4.3 18:03:16 10° SSW 18:07:17 33° W 18:11:20 10° NNW
USA 234 3.5 18:05:52 43° NE 18:07:34 54° N 18:13:54 10° WNW
S3M 4.1 18:02:03 10° NNW 18:08:09 72° W 18:14:14 10° S
IRS-1A Rocket 4.3 18:08:25 60° ENE 18:08:30 60° ENE 18:14:15 10° N
Ariane Rocket 3.8 18:11:25 38° NNE 18:11:25 38° NNE 18:14:42 10° N
CZ-4C R/B 3.7 18:05:08 10° NW 18:10:47 31° NNE 18:11:46 30° NNE
Cosmos 1346 Rocket 4.3 18:09:24 10° SW 18:13:02 35° WNW 18:15:11 20° NNW
Cosmos 1655 Rocket 3.9 18:06:53 10° S 18:13:06 88° W 18:19:23 10° N
Cosmos 2278 Rocket 2.7 18:08:33 10° SW 18:14:08 57° NW 18:17:11 27° NNE
Cosmos 1953 Rocket 4.2 18:12:05 10° SSW 18:16:20 52° WNW 18:17:58 33° NNW
USA 281 4.1 18:17:58 32° NNE 18:17:58 32° NNE 18:22:49 10° NNW
Cosmos 2292 Rocket 4.2 18:16:32 10° SSW 18:20:41 50° WSW 18:20:41 50° WSW
Cosmos 44 Rocket 3.7 18:19:25 10° SW 18:23:19 57° SSW 18:23:19 57° SSW
ARGOS 4.4 18:24:20 10° SSW 18:29:21 40° W 18:34:25 10° NNW
NOSS 2-2 (D) 4.4 18:27:23 10° NW 18:32:42 77° SW 18:33:29 67° S
CZ-2C R/B 2.9 18:33:45 27° N 18:36:55 69° WNW 18:42:29 10° SSW
Cosmos 909 Rocket 4.3 18:54:25 10° NW 19:00:09 73° NW 19:00:09 73° NW
USA 234 4.4 19:53:12 38° WNW 19:53:12 38° WNW 19:56:57 10° WNW
ATLAS 2AS CENTAUR R/B 4.0 19:43:48 10° NW 19:48:21 35° NNW 19:48:21 35° NNW
CZ-4C R/B 4.2 19:53:45 10° NW 19:56:58 31° NNW 19:56:58 31° NNW
